No particular awareness of the weather is required.    There are no Weather-warnings


Meteo18 Weather Cam more information Meteo18 Weather Cam


Thunder radar more information blitzortung!


Rain radar more information rain snow radar


Visit our other weather sites:

Template documentation
and downloads

And another site



Weather Underground History page Text

Daily Summary for July 27, 2017 Units:  English    Metric   Both
« Previous Day
Next Day »
Daily Weekly Monthly Yearly Custom
  High: Low: Average:
Temperature: TemperatureC °F 16.2 °F 18.3 °F
Dew Point: DewpointC °F 15.1 °F 16.8 °F
Humidity: Humidity % 78 % 91 %
Wind Speed: WindSpeedKMH mph 0.0 mph 7.2 mph
Wind Gust: WindSpeedGustKMH mph - -
Wind:- - WSW
Pressure: PressurehPa in 1011.7 in -
Precipitation: 5.8 in    
Historical Graphs
 
 
Tabular Data for July 27, 2017
Time Temperature Dew Point Pressure Wind Wind Speed Wind Gust Humidity Rainfall Rate (Hourly)
TemperatureC °F DewpointC °F PressurehPa in Calm     Humidity % HourlyPrecipMM in
00:02 18.1 °F 16.9 °F 1014.4 in SSW 14.5 mph 16.1 mph 93 % 0.0 in
00:12 18.1 °F 16.9 °F 1014.4 in SSW 8.0 mph 16.1 mph 93 % 0.0 in
00:17 18.1 °F 16.9 °F 1014.8 in WSW 3.2 mph 19.3 mph 93 % 0.0 in
00:22 18.1 °F 16.9 °F 1014.8 in SW 4.8 mph 12.9 mph 93 % 0.0 in
00:32 18.0 °F 16.9 °F 1014.8 in SW 4.8 mph 14.5 mph 93 % 0.0 in
00:37 18.0 °F 16.9 °F 1014.8 in WSW 4.8 mph 14.5 mph 93 % 0.0 in
00:42 18.0 °F 16.9 °F 1014.8 in SW 9.7 mph 14.5 mph 93 % 0.0 in
00:47 17.9 °F 16.6 °F 1014.8 in SSW 4.8 mph 14.5 mph 92 % 0.0 in
00:52 17.9 °F 16.6 °F 1014.8 in West 9.7 mph 16.1 mph 92 % 0.0 in
01:02 17.8 °F 16.5 °F 1014.4 in SSW 3.2 mph 16.1 mph 92 % 0.0 in
01:12 17.6 °F 16.3 °F 1014.4 in WSW 3.2 mph 16.1 mph 92 % 0.0 in
01:17 17.5 °F 16.2 °F 1014.4 in WSW 3.2 mph 12.9 mph 92 % 0.0 in
01:22 17.4 °F 16.1 °F 1014.4 in SW 12.9 mph 12.9 mph 92 % 0.0 in
01:27 17.4 °F 16.1 °F 1014.4 in SSW 4.8 mph 12.9 mph 92 % 0.0 in
01:32 17.3 °F 16.0 °F 1014.4 in SW 4.8 mph 12.9 mph 92 % 0.0 in
01:37 17.3 °F 16.2 °F 1014.4 in SW 4.8 mph 12.9 mph 93 % 0.0 in
01:42 17.2 °F 16.1 °F 1014.4 in SW 8.0 mph 12.9 mph 93 % 0.0 in
01:47 17.2 °F 16.1 °F 1014.4 in SSW 1.6 mph 12.9 mph 93 % 0.0 in
01:52 17.1 °F 16.0 °F 1014.4 in SW 8.0 mph 12.9 mph 93 % 0.0 in
01:57 17.1 °F 16.0 °F 1014.4 in SW 4.8 mph 11.3 mph 93 % 0.0 in
02:02 17.0 °F 15.9 °F 1014.4 in SSW 1.6 mph 11.3 mph 93 % 0.0 in
02:12 16.9 °F 15.8 °F 1014.4 in SW 4.8 mph 11.3 mph 93 % 0.0 in
02:17 16.9 °F 15.8 °F 1014.4 in SW 6.4 mph 12.9 mph 93 % 0.0 in
02:22 16.9 °F 15.6 °F 1014.4 in SW 4.8 mph 14.5 mph 92 % 0.0 in
02:27 16.9 °F 15.6 °F 1014.4 in SSW 3.2 mph 14.5 mph 92 % 0.0 in
02:32 16.8 °F 15.5 °F 1014.4 in SW 8.0 mph 14.5 mph 92 % 0.0 in
02:37 16.8 °F 15.5 °F 1014.4 in SW 3.2 mph 11.3 mph 92 % 0.0 in
02:42 16.7 °F 15.4 °F 1014.4 in WSW 9.7 mph 11.3 mph 92 % 0.0 in
02:47 16.7 °F 15.4 °F 1014.4 in WSW 4.8 mph 11.3 mph 92 % 0.0 in
02:52 16.7 °F 15.4 °F 1014.4 in SW 4.8 mph 11.3 mph 92 % 0.0 in
03:02 16.7 °F 15.4 °F 1014.1 in SW 4.8 mph 12.9 mph 92 % 0.0 in
03:07 16.7 °F 15.4 °F 1014.1 in SW 1.6 mph 14.5 mph 92 % 0.0 in
03:12 16.7 °F 15.4 °F 1014.1 in SW 6.4 mph 14.5 mph 92 % 0.0 in
03:17 16.7 °F 15.4 °F 1014.1 in SSW 3.2 mph 14.5 mph 92 % 0.0 in
03:22 16.7 °F 15.4 °F 1014.1 in SW 3.2 mph 12.9 mph 92 % 0.0 in
03:32 16.7 °F 15.4 °F 1014.1 in SW 6.4 mph 16.1 mph 92 % 0.0 in
03:37 16.7 °F 15.4 °F 1014.1 in WSW 8.0 mph 16.1 mph 92 % 0.0 in
03:47 16.7 °F 15.4 °F 1014.1 in SSW 4.8 mph 16.1 mph 92 % 0.0 in
03:52 16.7 °F 15.4 °F 1014.1 in SW 6.4 mph 12.9 mph 92 % 0.0 in
04:02 16.6 °F 15.5 °F 1013.8 in SW 6.4 mph 9.7 mph 93 % 0.0 in
04:12 16.6 °F 15.5 °F 1013.8 in West 4.8 mph 11.3 mph 93 % 0.0 in
04:17 16.6 °F 15.5 °F 1013.8 in SSW 4.8 mph 11.3 mph 93 % 0.0 in
04:22 16.6 °F 15.5 °F 1014.1 in SW 4.8 mph 9.7 mph 93 % 0.0 in
04:32 16.6 °F 15.5 °F 1014.1 in SW 4.8 mph 12.9 mph 93 % 0.0 in
04:37 16.7 °F 15.6 °F 1014.1 in SW 8.0 mph 12.9 mph 93 % 0.0 in
04:42 16.7 °F 15.6 °F 1014.1 in SW 6.4 mph 16.1 mph 93 % 0.0 in
04:47 16.7 °F 15.6 °F 1013.8 in SSE 4.8 mph 16.1 mph 93 % 0.0 in
04:52 16.6 °F 15.5 °F 1013.8 in SW 8.0 mph 16.1 mph 93 % 0.0 in
04:57 16.6 °F 15.5 °F 1013.8 in SW 3.2 mph 16.1 mph 93 % 0.0 in
05:02 16.6 °F 15.5 °F 1013.8 in WSW 4.8 mph 17.7 mph 93 % 0.0 in
05:12 16.5 °F 15.4 °F 1013.8 in SSW 3.2 mph 17.7 mph 93 % 0.0 in
05:17 16.5 °F 15.4 °F 1013.8 in South 1.6 mph 17.7 mph 93 % 0.0 in
05:22 16.5 °F 15.2 °F 1013.8 in SW 8.0 mph 12.9 mph 92 % 0.0 in
05:32 16.4 °F 15.3 °F 1013.8 in SSW 1.6 mph 11.3 mph 93 % 0.0 in
05:37 16.4 °F 15.3 °F 1013.8 in SW 4.8 mph 11.3 mph 93 % 0.0 in
05:42 16.4 °F 15.3 °F 1013.8 in West 1.6 mph 8.0 mph 93 % 0.0 in
05:47 16.4 °F 15.3 °F 1013.8 in SW 1.6 mph 8.0 mph 93 % 0.0 in
05:57 16.4 °F 15.1 °F 1013.8 in SW 3.2 mph 6.4 mph 92 % 0.0 in
06:02 16.4 °F 15.1 °F 1013.8 in SW 4.8 mph 11.3 mph 92 % 0.0 in
06:12 16.4 °F 15.1 °F 1013.8 in SW 3.2 mph 16.1 mph 92 % 0.0 in
06:17 16.4 °F 15.1 °F 1013.8 in WSW 4.8 mph 16.1 mph 92 % 0.0 in
06:22 16.4 °F 15.1 °F 1013.8 in SW 3.2 mph 11.3 mph 92 % 0.0 in
06:32 16.4 °F 15.3 °F 1013.8 in WSW 3.2 mph 11.3 mph 93 % 0.0 in
06:37 16.4 °F 15.3 °F 1013.8 in SW 6.4 mph 8.0 mph 93 % 0.0 in
06:42 16.4 °F 15.3 °F 1013.8 in WSW 4.8 mph 8.0 mph 93 % 0.0 in
06:47 16.4 °F 15.3 °F 1013.8 in WSW 8.0 mph 8.0 mph 93 % 0.0 in
06:52 16.4 °F 15.3 °F 1013.8 in WSW 3.2 mph 14.5 mph 93 % 0.0 in
06:57 16.3 °F 15.3 °F 1013.8 in SW 4.8 mph 14.5 mph 94 % 0.0 in
07:02 16.3 °F 15.3 °F 1013.8 in SW 8.0 mph 14.5 mph 94 % 0.0 in
07:12 16.3 °F 15.3 °F 1013.8 in SW 9.7 mph 14.5 mph 94 % 0.0 in
07:17 16.3 °F 15.3 °F 1013.8 in SW 4.8 mph 14.5 mph 94 % 0.0 in
07:22 16.3 °F 15.3 °F 1013.8 in WSW 8.0 mph 14.5 mph 94 % 0.0 in
07:32 16.3 °F 15.5 °F 1013.8 in SW 8.0 mph 14.5 mph 95 % 0.0 in
07:37 16.3 °F 15.5 °F 1013.8 in SSW 6.4 mph 14.5 mph 95 % 0.0 in
07:42 16.2 °F 15.4 °F 1013.8 in WSW 14.5 mph 16.1 mph 95 % 0.0 in
07:47 16.2 °F 15.4 °F 1013.8 in SSW 4.8 mph 16.1 mph 95 % 0.0 in
07:52 16.2 °F 15.4 °F 1013.8 in SSW 11.3 mph 17.7 mph 95 % 0.0 in
08:02 16.2 °F 15.6 °F 1014.1 in SW 11.3 mph 17.7 mph 96 % 0.0 in
08:12 16.2 °F 15.6 °F 1013.8 in SW 11.3 mph 17.7 mph 96 % 0.0 in
08:17 16.2 °F 15.6 °F 1014.1 in WSW 9.7 mph 17.7 mph 96 % 0.0 in
08:27 16.2 °F 15.6 °F 1014.1 in SW 8.0 mph 16.1 mph 96 % 0.5 in
08:32 16.2 °F 15.6 °F 1014.1 in SW 6.4 mph 19.3 mph 96 % 0.5 in
08:42 16.3 °F 15.7 °F 1014.1 in SSW 8.0 mph 16.1 mph 96 % 0.5 in
08:52 16.4 °F 15.8 °F 1014.1 in South 8.0 mph 16.1 mph 96 % 0.8 in
08:57 16.4 °F 15.8 °F 1014.1 in SW 12.9 mph 16.1 mph 96 % 0.8 in
09:02 16.4 °F 15.8 °F 1014.1 in WSW 9.7 mph 20.9 mph 96 % 0.8 in
09:12 16.4 °F 15.8 °F 1013.8 in SW 9.7 mph 20.9 mph 96 % 0.8 in
09:17 16.4 °F 15.8 °F 1014.1 in SW 9.7 mph 20.9 mph 96 % 0.8 in
09:22 16.4 °F 15.8 °F 1014.1 in WSW 4.8 mph 20.9 mph 96 % 0.5 in
09:27 16.4 °F 15.8 °F 1014.1 in WSW 9.7 mph 20.9 mph 96 % 0.5 in
09:32 16.4 °F 15.8 °F 1014.1 in WSW 12.9 mph 20.9 mph 96 % 0.3 in
09:42 16.6 °F 16.0 °F 1014.1 in SW 9.7 mph 20.9 mph 96 % 0.3 in
09:52 16.6 °F 16.0 °F 1014.1 in SW 6.4 mph 20.9 mph 96 % 0.0 in
09:57 16.7 °F 16.1 °F 1014.1 in WSW 8.0 mph 20.9 mph 96 % 0.0 in
10:02 16.7 °F 16.1 °F 1014.1 in SW 9.7 mph 20.9 mph 96 % 0.3 in
10:12 16.8 °F 16.2 °F 1014.1 in SW 6.4 mph 17.7 mph 96 % 0.3 in
10:17 16.8 °F 16.2 °F 1014.1 in SW 14.5 mph 17.7 mph 96 % 0.3 in
10:22 16.8 °F 16.2 °F 1014.1 in SW 6.4 mph 19.3 mph 96 % 0.5 in
10:32 16.9 °F 16.3 °F 1014.1 in SW 9.7 mph 22.5 mph 96 % 0.5 in
10:37 17.0 °F 16.4 °F 1014.1 in SW 11.3 mph 22.5 mph 96 % 0.5 in
10:42 17.1 °F 16.5 °F 1013.8 in WSW 4.8 mph 22.5 mph 96 % 0.5 in
10:47 17.1 °F 16.5 °F 1013.8 in SW 8.0 mph 22.5 mph 96 % 0.5 in
10:52 17.1 °F 16.5 °F 1014.1 in SW 11.3 mph 16.1 mph 96 % 0.5 in
10:57 17.2 °F 16.6 °F 1014.1 in SW 12.9 mph 16.1 mph 96 % 0.5 in
11:02 17.1 °F 16.5 °F 1014.1 in SW 12.9 mph 22.5 mph 96 % 0.5 in
11:07 17.2 °F 16.6 °F 1014.1 in SSW 4.8 mph 22.5 mph 96 % 0.5 in
11:12 17.2 °F 16.6 °F 1013.8 in SW 16.1 mph 22.5 mph 96 % 0.5 in
11:17 17.2 °F 16.6 °F 1013.8 in SW 9.7 mph 22.5 mph 96 % 0.5 in
11:22 17.3 °F 16.7 °F 1013.8 in SW 9.7 mph 22.5 mph 96 % 0.5 in
11:27 17.4 °F 16.8 °F 1013.8 in WSW 12.9 mph 22.5 mph 96 % 0.5 in
11:32 17.5 °F 16.9 °F 1013.8 in SW 16.1 mph 24.1 mph 96 % 0.5 in
11:37 17.6 °F 17.0 °F 1013.4 in SSW 12.9 mph 24.1 mph 96 % 0.5 in
11:42 17.7 °F 17.1 °F 1013.8 in SW 27.4 mph 27.4 mph 96 % 0.5 in
11:47 17.6 °F 16.8 °F 1013.4 in SW 14.5 mph 27.4 mph 95 % 0.5 in
11:52 17.7 °F 17.1 °F 1013.4 in SW 11.3 mph 27.4 mph 96 % 0.5 in
12:02 17.6 °F 16.8 °F 1013.4 in SSW 8.0 mph 25.7 mph 95 % 0.5 in
12:12 17.7 °F 16.9 °F 1013.4 in SSW 9.7 mph 25.7 mph 95 % 0.5 in
12:17 17.8 °F 17.0 °F 1013.4 in WSW 14.5 mph 25.7 mph 95 % 0.5 in
12:22 17.8 °F 17.2 °F 1013.4 in South 17.7 mph 24.1 mph 96 % 0.3 in
12:32 17.9 °F 17.3 °F 1013.1 in WSW 12.9 mph 24.1 mph 96 % 0.3 in
12:37 17.9 °F 17.1 °F 1013.1 in WSW 14.5 mph 25.7 mph 95 % 0.3 in
12:42 18.1 °F 17.5 °F 1013.1 in SW 11.3 mph 25.7 mph 96 % 0.3 in
12:47 18.1 °F 17.3 °F 1013.1 in SW 20.9 mph 25.7 mph 95 % 0.3 in
12:52 18.2 °F 17.6 °F 1013.1 in SW 12.9 mph 25.7 mph 96 % 0.3 in
13:02 18.2 °F 17.4 °F 1013.1 in SW 12.9 mph 25.7 mph 95 % 0.3 in
13:12 18.2 °F 17.4 °F 1013.1 in SW 9.7 mph 25.7 mph 95 % 0.3 in
13:17 18.2 °F 17.4 °F 1013.1 in WSW 11.3 mph 25.7 mph 95 % 0.3 in
13:27 18.4 °F 17.6 °F 1012.8 in SW 11.3 mph 24.1 mph 95 % 0.3 in
13:32 18.4 °F 17.6 °F 1012.8 in SW 11.3 mph 22.5 mph 95 % 0.3 in
13:37 18.4 °F 17.6 °F 1012.8 in WSW 9.7 mph 22.5 mph 95 % 0.3 in
13:42 18.5 °F 17.8 °F 1012.8 in SW 3.2 mph 22.5 mph 96 % 0.0 in
13:52 18.6 °F 17.8 °F 1012.8 in SW 9.7 mph 22.5 mph 95 % 0.0 in
13:57 18.7 °F 17.9 °F 1012.8 in WSW 11.3 mph 22.5 mph 95 % 0.0 in
14:02 18.8 °F 18.0 °F 1012.8 in WSW 8.0 mph 25.7 mph 95 % 0.0 in
14:12 18.8 °F 18.0 °F 1012.8 in WSW 14.5 mph 27.4 mph 95 % 0.3 in
14:17 19.0 °F 18.2 °F 1012.8 in SW 6.4 mph 27.4 mph 95 % 0.3 in
14:22 19.2 °F 18.4 °F 1012.8 in West 12.9 mph 30.6 mph 95 % 0.3 in
14:32 19.2 °F 18.2 °F 1012.8 in WSW 11.3 mph 25.7 mph 94 % 0.3 in
14:37 19.4 °F 18.4 °F 1012.4 in SW 14.5 mph 25.7 mph 94 % 0.3 in
14:42 19.6 °F 18.4 °F 1012.4 in WSW 9.7 mph 24.1 mph 93 % 0.3 in
14:47 19.8 °F 18.5 °F 1012.4 in SW 8.0 mph 24.1 mph 92 % 0.3 in
14:52 20.0 °F 18.7 °F 1012.4 in SW 16.1 mph 22.5 mph 92 % 0.3 in
15:02 19.9 °F 18.4 °F 1012.4 in WSW 20.9 mph 24.1 mph 91 % 0.3 in
15:12 19.8 °F 18.3 °F 1012.4 in WSW 12.9 mph 24.1 mph 91 % 0.0 in
15:17 20.2 °F 18.9 °F 1012.4 in SW 6.4 mph 24.1 mph 92 % 0.3 in
15:22 20.4 °F 18.5 °F 1012.4 in SW 11.3 mph 20.9 mph 89 % 0.3 in
15:27 20.5 °F 18.6 °F 1012.4 in WSW 11.3 mph 22.5 mph 89 % 0.3 in
15:32 20.8 °F 18.9 °F 1012.1 in SW 9.7 mph 22.5 mph 89 % 0.3 in
15:42 20.5 °F 18.4 °F 1012.1 in WSW 27.4 mph 27.4 mph 88 % 0.3 in
15:47 20.1 °F 18.2 °F 1012.4 in SSW 6.4 mph 33.8 mph 89 % 0.3 in
15:52 20.1 °F 18.6 °F 1012.1 in SSW 16.1 mph 33.8 mph 91 % 0.3 in
16:02 20.2 °F 18.7 °F 1012.4 in West 9.7 mph 29.0 mph 91 % 0.3 in
16:12 19.6 °F 17.6 °F 1012.1 in WNW 17.7 mph 32.2 mph 88 % 0.3 in
16:17 19.5 °F 17.8 °F 1012.1 in WNW 12.9 mph 32.2 mph 90 % 0.0 in
16:22 19.6 °F 17.9 °F 1012.1 in West 9.7 mph 24.1 mph 90 % 0.0 in
16:27 19.8 °F 18.1 °F 1012.1 in West 9.7 mph 24.1 mph 90 % 0.0 in
16:32 19.9 °F 18.2 °F 1012.1 in West 6.4 mph 20.9 mph 90 % 0.0 in
16:37 20.1 °F 18.2 °F 1012.1 in WSW 8.0 mph 19.3 mph 89 % 0.0 in
16:42 20.2 °F 18.5 °F 1012.1 in West 3.2 mph 19.3 mph 90 % 0.0 in
16:47 20.2 °F 18.3 °F 1011.7 in WSW 6.4 mph 19.3 mph 89 % 0.0 in
16:52 20.3 °F 18.4 °F 1012.1 in WNW 12.9 mph 12.9 mph 89 % 0.0 in
16:57 19.9 °F 18.2 °F 1012.1 in WNW 12.9 mph 12.9 mph 90 % 1.3 in
17:02 19.6 °F 18.3 °F 1012.1 in West 6.4 mph 19.3 mph 92 % 1.3 in
17:12 19.3 °F 18.0 °F 1012.1 in West 6.4 mph 19.3 mph 92 % 2.0 in
17:17 19.4 °F 18.2 °F 1012.1 in West 11.3 mph 16.1 mph 93 % 3.3 in
17:22 19.5 °F 18.3 °F 1012.1 in West 8.0 mph 17.7 mph 93 % 3.3 in
17:27 19.7 °F 18.5 °F 1012.1 in West 6.4 mph 17.7 mph 93 % 3.3 in
17:32 19.9 °F 18.6 °F 1012.1 in SW 6.4 mph 17.7 mph 92 % 3.3 in
17:37 20.3 °F 19.0 °F 1012.1 in SW 8.0 mph 19.3 mph 92 % 3.3 in
17:42 20.4 °F 19.1 °F 1012.1 in SW 8.0 mph 19.3 mph 92 % 3.3 in
17:47 20.4 °F 18.9 °F 1012.1 in West 4.8 mph 22.5 mph 91 % 3.3 in
17:52 20.5 °F 19.2 °F 1012.1 in SSW 4.8 mph 24.1 mph 92 % 3.3 in
17:57 20.7 °F 19.2 °F 1012.1 in WSW 8.0 mph 24.1 mph 91 % 1.5 in
18:02 20.8 °F 19.3 °F 1012.1 in WSW 9.7 mph 24.1 mph 91 % 1.5 in
18:12 21.0 °F 19.3 °F 1012.1 in WSW 4.8 mph 20.9 mph 90 % 1.5 in
18:17 21.1 °F 19.4 °F 1012.1 in WSW 4.8 mph 19.3 mph 90 % 0.3 in
18:22 21.1 °F 19.4 °F 1012.1 in WSW 8.0 mph 19.3 mph 90 % 0.3 in
18:27 21.1 °F 19.4 °F 1012.1 in West 4.8 mph 17.7 mph 90 % 0.0 in
18:32 21.1 °F 19.2 °F 1011.7 in SW 3.2 mph 17.7 mph 89 % 0.0 in
18:42 21.3 °F 19.4 °F 1011.7 in SW 3.2 mph 14.5 mph 89 % 0.0 in
18:52 21.5 °F 19.4 °F 1011.7 in SW 6.4 mph 14.5 mph 88 % 0.0 in
18:57 21.7 °F 19.4 °F 1011.7 in West 8.0 mph 12.9 mph 87 % 0.0 in
19:02 21.9 °F 19.3 °F 1011.7 in SW 9.7 mph 12.9 mph 85 % 0.0 in
19:07 21.9 °F 19.3 °F 1011.7 in West 4.8 mph 17.7 mph 85 % 0.0 in
19:12 21.9 °F 18.9 °F 1011.7 in WNW 3.2 mph 17.7 mph 83 % 0.0 in
19:17 22.0 °F 19.0 °F 1011.7 in West 9.7 mph 17.7 mph 83 % 0.0 in
19:22 22.0 °F 18.8 °F 1011.7 in WSW 8.0 mph 16.1 mph 82 % 0.0 in
19:27 21.9 °F 18.5 °F 1011.7 in West 4.8 mph 20.9 mph 81 % 0.0 in
19:32 21.9 °F 18.7 °F 1011.7 in West 4.8 mph 20.9 mph 82 % 0.0 in
19:37 21.9 °F 18.7 °F 1011.7 in WNW 4.8 mph 17.7 mph 82 % 0.0 in
19:42 21.9 °F 18.9 °F 1011.7 in SW 3.2 mph 14.5 mph 83 % 0.0 in
19:47 21.9 °F 18.5 °F 1011.7 in WSW 3.2 mph 14.5 mph 81 % 0.0 in
19:52 21.9 °F 18.5 °F 1011.7 in WSW 6.4 mph 12.9 mph 81 % 0.0 in
19:57 21.9 °F 18.5 °F 1011.7 in WNW 3.2 mph 17.7 mph 81 % 0.0 in
20:02 21.9 °F 18.5 °F 1011.7 in WSW 8.0 mph 17.7 mph 81 % 0.0 in
20:12 21.8 °F 18.4 °F 1011.7 in WSW 4.8 mph 17.7 mph 81 % 0.0 in
20:17 21.7 °F 18.1 °F 1012.1 in West 4.8 mph 9.7 mph 80 % 0.0 in
20:22 21.6 °F 18.0 °F 1012.1 in WSW 4.8 mph 11.3 mph 80 % 0.0 in
20:32 21.4 °F 17.6 °F 1012.1 in West 3.2 mph 11.3 mph 79 % 0.0 in
20:42 21.2 °F 17.6 °F 1012.1 in WNW 1.6 mph 11.3 mph 80 % 0.0 in
20:47 21.1 °F 17.5 °F 1012.1 in SW 3.2 mph 8.0 mph 80 % 0.0 in
20:52 21.0 °F 17.4 °F 1012.4 in West 3.2 mph 8.0 mph 80 % 0.0 in
20:57 20.9 °F 17.3 °F 1012.4 in WSW 4.8 mph 8.0 mph 80 % 0.0 in
21:02 20.8 °F 17.2 °F 1012.4 in WSW 4.8 mph 8.0 mph 80 % 0.0 in
21:12 20.7 °F 17.1 °F 1012.8 in WSW 1.6 mph 9.7 mph 80 % 0.0 in
21:17 20.7 °F 16.9 °F 1012.8 in Calm   9.7 mph 79 % 0.0 in
21:27 20.6 °F 16.8 °F 1012.8 in West 6.4 mph 8.0 mph 79 % 0.0 in
21:32 20.6 °F 16.6 °F 1012.8 in WNW 4.8 mph 8.0 mph 78 % 0.0 in
21:37 20.5 °F 16.7 °F 1012.8 in NW 3.2 mph 9.7 mph 79 % 0.0 in
21:42 20.3 °F 16.9 °F 1012.8 in NW 3.2 mph 9.7 mph 81 % 0.0 in
21:47 20.1 °F 16.9 °F 1012.8 in NW 3.2 mph 9.7 mph 82 % 0.0 in
21:52 19.9 °F 16.9 °F 1012.8 in Calm   8.0 mph 83 % 0.0 in
21:57 19.8 °F 17.0 °F 1013.1 in NNW 1.6 mph 6.4 mph 84 % 0.0 in
22:02 19.7 °F 17.1 °F 1013.1 in Calm   6.4 mph 85 % 0.0 in
22:12 19.4 °F 16.8 °F 1013.4 in NNW 6.4 mph 6.4 mph 85 % 0.0 in
22:17 19.3 °F 16.7 °F 1013.4 in NW 3.2 mph 4.8 mph 85 % 0.0 in
22:22 19.2 °F 16.6 °F 1013.4 in West 1.6 mph 6.4 mph 85 % 0.0 in
22:32 19.2 °F 16.6 °F 1013.8 in Calm   6.4 mph 85 % 0.0 in
22:42 19.1 °F 16.5 °F 1013.8 in Calm   3.2 mph 85 % 0.0 in
22:47 19.0 °F 16.4 °F 1013.8 in Calm   3.2 mph 85 % 0.0 in
22:52 18.9 °F 16.5 °F 1013.8 in NNW 1.6 mph 3.2 mph 86 % 0.0 in
22:57 18.8 °F 16.4 °F 1013.8 in NNW 1.6 mph 1.6 mph 86 % 0.0 in
23:02 18.8 °F 16.4 °F 1013.8 in NNW 1.6 mph 3.2 mph 86 % 0.0 in
23:12 18.7 °F 16.3 °F 1013.8 in Calm   3.2 mph 86 % 0.0 in
23:17 18.6 °F 16.4 °F 1013.8 in Calm   1.6 mph 87 % 0.0 in
23:22 18.6 °F 16.4 °F 1014.1 in Calm   1.6 mph 87 % 0.0 in
23:27 18.5 °F 16.5 °F 1014.1 in Calm   1.6 mph 88 % 0.0 in
23:37 18.3 °F 16.5 °F 1014.1 in Calm     89 % 0.0 in
23:42 18.2 °F 16.5 °F 1014.4 in Calm     90 % 0.0 in
23:52 18.1 °F 16.4 °F 1014.4 in Calm     90 % 0.0 in
Meteo18
Compliments of Weather Underground - 4 mb

Script developed by  Jim McMurry - jmcmurry@mwt.net Adapted for the template by  Wim van der Kuil - Leuven-Template.eu

You find our weather info also at:

European Weather Network

Weather Underground

Equipment we use:

Weather-station
Davis Vue

Weather-program
Meteobridge

Weather-server
Raspberry PI 2 B+

Provider
1 and 1

Davis Vue

Meteobridge

Raspberry PI 2 B+

1 and 1